Jerez de la Frontera, Spain

2:04 AM CET on February 20, 2017 (GMT +0100)
Jerez de la Frontera

Weather History for LEJR - October, 2012

Change the Weather History Date:

Wednesday, October 17, 2012

  Actual Average Record
Temperature  
Mean Temperature 66 °F -  
Max Temperature 82 °F 69 °F 89 °F (2013)
Min Temperature 50 °F 50 °F 48 °F (2010)
Cooling Degree Days 1    
Growing Degree Days 16 (Base 50)    
Moisture  
Dew Point 52 °F    
Average Humidity 65    
Maximum Humidity 94    
Minimum Humidity 24    
Precipitation  
Precipitation 0.00 in 0.12 in - ()
Sea Level Pressure  
Sea Level Pressure 29.85 in    
Wind  
Wind Speed 5 mph ()    
Max Wind Speed 16 mph    
Max Gust Speed -    
Visibility 18.0 miles    
Events      
Averages and records for this station are not official NWS values.
T = Trace of Precipitation, MM = Missing Value Source: Averaged Metar Reports

Daily Weather History Graph

Daily Weather History Graph

Search for Another Location

Airport or City:

Trip Planner

Search our weather history database for the weather conditions in past years. The results will help you decide how hot, cold, wet, or windy it might be!

Date:

Astronomy

Oct. 17, 2012 Rise Set
Actual Time 8:33 AM CEST 7:44 PM CEST
Civil Twilight 8:07 AM CEST 8:10 PM CEST
Nautical Twilight 7:37 AM CEST 8:40 PM CEST
Astronomical Twilight 7:07 AM CEST 9:10 PM CEST
Moon 10:47 AM CEST (10/17) 9:12 PM CEST (10/17)
Length of Visible Light 12h 03m
Length of Day
11h 10m
Waxing Crescent, 5% of the Moon is Illuminated
Oct 17
Waxing Crescent
Oct 22
First Quarter
Oct 29
Full
Nov 7
Last Quarter
Nov 13
New

Hourly Weather History & Observations

Time (CEST) Temp. Dew Point Humidity Pressure Visibility Wind Dir Wind Speed Gust Speed Precip Events Conditions
2:00 AM 54 °F 50 °F 83% 29.95 in 16 mi East 2.3 mph - -  
5:00 AM 53.6 °F 50.0 °F 88% 29.89 in - Variable 1.2 mph - N/A   Clear
5:30 AM 51.8 °F 48.2 °F 88% 29.89 in - Variable 2.3 mph - N/A   Clear
6:00 AM 50.0 °F 48.2 °F 94% 29.89 in - Variable 1.2 mph - N/A   Clear
6:30 AM 50.0 °F 48.2 °F 94% 29.89 in - Variable 2.3 mph - N/A   Clear
7:00 AM 51.8 °F 48.2 °F 88% 29.89 in - Calm Calm - N/A   Clear
7:30 AM 50.0 °F 48.2 °F 94% 29.89 in - Variable 2.3 mph - N/A   Clear
8:00 AM 50 °F 48 °F 89% 29.89 in 22 mi NNE 2.3 mph - -  
8:00 AM 50.0 °F 46.4 °F 87% 29.89 in - Variable 1.2 mph - N/A   Clear
8:30 AM 51.8 °F 48.2 °F 88% 29.89 in - Calm Calm - N/A   Clear
9:00 AM 51.8 °F 48.2 °F 88% 29.89 in - Calm Calm - N/A   Clear
9:30 AM 55.4 °F 50.0 °F 82% 29.89 in - Calm Calm - N/A   Clear
10:00 AM 57.2 °F 51.8 °F 82% 29.89 in - Calm Calm - N/A   Clear
10:30 AM 60.8 °F 51.8 °F 72% 29.92 in - Calm Calm - N/A   Clear
11:00 AM 66.2 °F 51.8 °F 60% 29.92 in - Calm Calm - N/A   Clear
11:30 AM 68.0 °F 50.0 °F 52% 29.92 in - Variable 5.8 mph - N/A   Clear
12:00 PM 71.6 °F 51.8 °F 50% 29.92 in - ESE 6.9 mph - N/A   Clear
12:30 PM 73.4 °F 51.8 °F 47% 29.89 in - SE 8.1 mph - N/A   Clear
1:00 PM 75.2 °F 51.8 °F 44% 29.89 in - SSE 9.2 mph - N/A   Clear
1:30 PM 75.2 °F 51.8 °F 44% 29.89 in - South 10.4 mph - N/A   Clear
2:00 PM 78 °F 57 °F 39% 29.87 in 19 mi South 11.5 mph - -   Scattered Clouds
2:00 PM 77.0 °F 53.6 °F 44% 29.86 in - South 10.4 mph - N/A   Clear
2:30 PM 78.8 °F 53.6 °F 42% 29.86 in - South 11.5 mph - N/A   Clear
3:00 PM 78.8 °F 53.6 °F 42% 29.83 in - South 10.4 mph - N/A   Clear
3:30 PM 78.8 °F 51.8 °F 39% 29.80 in - South 11.5 mph - N/A   Clear
4:00 PM 80.6 °F 51.8 °F 37% 29.80 in - SSW 12.7 mph - N/A   Clear
4:30 PM 80.6 °F 50.0 °F 34% 29.80 in - SW 13.8 mph - N/A   Clear
5:00 PM 78.8 °F 42.8 °F 28% 29.80 in - SW 13.8 mph - N/A   Clear
5:30 PM 78.8 °F 39.2 °F 24% 29.77 in - WSW 13.8 mph - N/A   Clear
6:00 PM 77.0 °F 44.6 °F 32% 29.77 in - SW 16.1 mph - N/A   Clear
6:30 PM 75.2 °F 51.8 °F 44% 29.77 in - SW 13.8 mph - N/A   Clear
7:00 PM 71.6 °F 51.8 °F 50% 29.80 in - SW 12.7 mph - N/A   Clear
7:30 PM 71.6 °F 53.6 °F 53% 29.80 in - SW 12.7 mph - N/A   Clear
8:00 PM 68 °F 58 °F 63% 29.80 in 19 mi SSW 10.4 mph - -   Clear
8:00 PM 68.0 °F 55.4 °F 64% 29.80 in - SSW 10.4 mph - N/A   Clear
8:30 PM 66.2 °F 57.2 °F 73% 29.80 in - South 6.9 mph - N/A   Clear
9:00 PM 66.2 °F 59.0 °F 78% 29.80 in - South 6.9 mph - N/A   Clear
9:30 PM 64.4 °F 60.8 °F 88% 29.80 in - South 4.6 mph - N/A   Clear
10:00 PM 64.4 °F 59.0 °F 83% 29.80 in - South 3.5 mph - N/A   Clear
10:30 PM 62.6 °F 59.0 °F 88% 29.80 in - SSW 5.8 mph - N/A   Clear
11:00 PM 62.6 °F 59.0 °F 88% 29.80 in - South 3.5 mph - N/A   Clear